Regional Weather Roundup
Issued by NWS

Home | Current Version | Previous Version | Graphics & Text | Print | Product List | Glossary On
Versions: 1 2 3 4 5 6 7 8 9 10 11 12 13 14 15 16 17 18 19 20 21 22 23 24 25 26 27 28 29 30 31 32 33 34 35 36 37 38 39 40 41 42 43 44 45 46 47 48 49 50
083
ASUS45 KSLC 040010
RWRUT

UTAH REGIONAL WEATHER ROUNDUP
NATIONAL WEATHER SERVICE SALT LAKE CITY UT
600 PM MDT TUE MAY 03 2016

UTZ001>011-023>025-040100-

NORTHERN UTAH

CITY           SKY/WX    TMP DP  RH WIND       PRES   REMARKS
BRIGHAM CITY   SUNNY     72  25  17 W5        30.15F
HILL AFB       SUNNY     70  31  23 NW9       30.16F
LOGAN          SUNNY     72  34  24 W8        30.15F
OGDEN          SUNNY     71  30  21 NW7       30.15F
PROVO AIRPORT  MOSUNNY   72  32  23 VRB5      30.14F
SALT LAKE CITY MOSUNNY   73  27  18 W9        30.13F
VERNAL         SUNNY     70  23  17 CALM      30.18F
WENDOVER       SUNNY     70  27  19 SE6       30.16F
HEBER CITY     SUNNY     72  30  21 SW8       30.15F

$$

UTZ012>022-026-027-040100-

SOUTHERN/CENTRAL UTAH

CITY           SKY/WX    TMP DP  RH WIND       PRES   REMARKS
BLANDING       SUNNY     69  26  20 CALM      30.25S
BRYCE CANYON   SUNNY     61  22  22 SE9       30.27F
CEDAR CITY     MOSUNNY   70  33  25 SW5       30.13F
DELTA          SUNNY     72  27  18 NW5       30.13F
HANKSVILLE     SUNNY     75  23  14 N5        30.15F
MILFORD        SUNNY     73  31  21 N10       30.12F
MOAB/CYNLANDS  SUNNY     75  29  18 CALM      30.10F
PRICE          SUNNY     69  25  19 SW7       30.19F
ST GEORGE      CLEAR     82  30  15 SE12      30.01F
KANAB          SUNNY     72  27  18 NE12G18   30.17F

$$

REGIONAL REPORTS     COLORADO/ARIZONA

CITY           SKY/WX    TMP DP  RH WIND       PRES   REMARKS
CRAIG, CO      SUNNY     67  29  24 CALM      30.22F
GRAND JUNCTION SUNNY     72  30  21 W7        30.12F
RIFLE          SUNNY     72  24  16 W7        30.15F
MONTROSE       SUNNY     70  23  17 NW13      30.18F
CORTEZ         SUNNY     70  29  21 S17       30.17S
PAGE, AZ       SUNNY     74  25  16 CALM      30.12F
GRAND CANYON   SUNNY     65  25  22 VRB7      30.23R
KINGMAN        SUNNY     83  27  13 S14       29.99F
FLAGSTAFF      SUNNY     60  26  27 E14       30.23S

$$

REGIONAL REPORTS    NEVADA/IDAHO/WYOMING

CITY           SKY/WX    TMP DP  RH WIND       PRES   REMARKS
LAS VEGAS, NV  MOSUNNY   84  27  12 CALM      29.93F
ELY            SUNNY     65  24  21 VRB6      30.17F
ELKO           MOSUNNY   71  31  22 VRB6      30.12F
POCATELLO, ID  MOSUNNY   73  34  23 NW7       30.16F
BURLEY         SUNNY     74  33  22 VRB7      30.10F
EVANSTON, WY   SUNNY     67  19  16 VRB6      30.25F
ROCK SPRINGS   SUNNY     64  20  18 CALM      30.26S
KEMMERER         N/A     64  18  16 CALM      30.27F

$$




USA.gov is the U.S. government's official web portal to all federal, state and local government web resources and services.